Location: *
(46.1333°S, 161.2167°W)
Time: 04:07:59
(UTC+00:00)

Cosmos 1697 Rocket - Pass Details

Date: 15 July 2020
Orbit: 834 x 842 km, 71.0° (Epoch: 10 August)

Event Time Altitude Azimuth Distance (km) Brightness Sun altitude
Exits shadow 16:03:03 45° 220° (SW) 1,144 3.0 -23.4°
Drops below altitude 10° 16:08:00 10° 163° (SSE) 2,488 5.2 -22.5°
Sets 16:10:35 0° 157° (SSE) 3,430 6.1 -22.1°
